| time (UTC) | temp F | wind direction | speed MPH | gust MPH | rain 1hr in | rain 24hr in | rain mn in | humidity % | barometer mb |
| 20260505010057 | 49 | 9 | 12.0 | 23.0 | 0.00 | 0.00 | 0.00 | 41 | 1015.6 |
| 20260505004558 | 50 | 24 | 18.0 | 26.0 | 0.00 | 0.00 | 0.00 | 40 | 1015.5 |
| 20260505003054 | 50 | 12 | 19.0 | 26.0 | 0.00 | 0.00 | 0.00 | 40 | 1015.4 |
| 20260505001553 | 51 | 24 | 19.0 | 27.0 | 0.00 | 0.00 | 0.00 | 39 | 1015.3 |
| 20260505000056 | 51 | 40 | 21.0 | 30.0 | 0.00 | 0.00 | 0.00 | 39 | 1015.0 |
| 20260504234550 | 52 | 22 | 17.0 | 27.0 | 0.00 | 0.00 | 0.00 | 39 | 1015.1 |
| 20260504233048 | 52 | 355 | 21.0 | 28.0 | 0.00 | 0.00 | 0.00 | 38 | 1015.0 |
| 20260504231547 | 52 | 13 | 18.0 | 28.0 | 0.00 | 0.00 | 0.00 | 39 | 1014.8 |
| 20260504230050 | 52 | 19 | 21.0 | 30.0 | 0.00 | 0.00 | 0.00 | 38 | 1014.6 |
| 20260504224548 | 53 | 16 | 20.0 | 27.0 | 0.00 | 0.00 | 0.00 | 36 | 1014.5 |
| 20260504223044 | 52 | 5 | 15.0 | 29.0 | 0.00 | 0.00 | 0.00 | 35 | 1014.4 |
| 20260504221543 | 55 | 347 | 17.0 | 33.0 | 0.00 | 0.00 | 0.00 | 34 | 1014.2 |
| 20260504220045 | 54 | 19 | 16.0 | 30.0 | 0.00 | 0.00 | 0.00 | 34 | 1014.2 |
| 20260504214552 | 54 | 5 | 17.0 | 30.0 | 0.00 | 0.00 | 0.00 | 32 | 1014.1 |
| 20260504213042 | 55 | 355 | 20.0 | 31.0 | 0.00 | 0.00 | 0.00 | 32 | 1014.2 |
| 20260504211541 | 53 | 355 | 20.0 | 35.0 | 0.00 | 0.00 | 0.00 | 31 | 1014.3 |
| 20260504210054 | 55 | 349 | 23.0 | 33.0 | 0.00 | 0.00 | 0.00 | 31 | 1014.1 |
| 20260504204556 | 55 | 30 | 23.0 | 33.0 | 0.00 | 0.00 | 0.00 | 32 | 1014.0 |
| 20260504203044 | 53 | 345 | 21.0 | 30.0 | 0.00 | 0.00 | 0.00 | 34 | 1013.7 |
| 20260504201537 | 54 | 331 | 20.0 | 32.0 | 0.00 | 0.00 | 0.00 | 35 | 1013.9 |
| 20260504200037 | 56 | 347 | 20.0 | 31.0 | 0.00 | 0.00 | 0.00 | 33 | 1013.8 |
| 20260504194536 | 54 | 331 | 13.0 | 26.0 | 0.00 | 0.00 | 0.00 | 39 | 1013.7 |
| 20260504193035 | 54 | 335 | 12.0 | 30.0 | 0.00 | 0.00 | 0.00 | 38 | 1013.9 |
| 20260504191533 | 55 | 338 | 17.0 | 29.0 | 0.00 | 0.00 | 0.00 | 37 | 1013.8 |
| 20260504190035 | 54 | 309 | 14.0 | 25.0 | 0.00 | 0.00 | 0.00 | 39 | 1014.1 |
| 20260504184530 | 52 | 329 | 16.0 | 26.0 | 0.00 | 0.00 | 0.00 | 41 | 1014.1 |
| 20260504183028 | 51 | 338 | 19.0 | 31.0 | 0.00 | 0.00 | 0.00 | 42 | 1014.1 |
| 20260504181528 | 51 | 342 | 14.0 | 23.0 | 0.00 | 0.00 | 0.00 | 42 | 1014.3 |
| 20260504180026 | 51 | 328 | 19.0 | 32.0 | 0.00 | 0.00 | 0.00 | 40 | 1014.4 |
| 20260504174526 | 53 | 333 | 21.0 | 31.0 | 0.00 | 0.00 | 0.00 | 39 | 1014.4 |
| 20260504173024 | 52 | 342 | 18.0 | 30.0 | 0.00 | 0.00 | 0.00 | 43 | 1014.4 |
| 20260504171523 | 52 | 308 | 13.0 | 29.0 | 0.00 | 0.00 | 0.00 | 43 | 1014.4 |
| 20260504081703 | 47 | 300 | 5.0 | 11.0 | 0.00 | 0.00 | 0.00 | 70 | 1011.9 |
| 20260504044543 | 55 | 11 | 18.0 | 30.0 | 0.00 | 0.00 | 0.00 | 40 | 1010.3 |
| 20260504043048 | 55 | 35 | 22.0 | 32.0 | 0.00 | 0.00 | 0.00 | 41 | 1010.1 |
| 20260504041544 | 57 | 355 | 22.0 | 33.0 | 0.00 | 0.00 | 0.00 | 38 | 1009.7 |
| 20260504040044 | 57 | 50 | 13.0 | 19.0 | 0.00 | 0.00 | 0.00 | 37 | 1009.0 |
| 20260504034547 | 56 | 40 | 11.0 | 17.0 | 0.00 | 0.00 | 0.00 | 36 | 1008.7 |
| 20260504033039 | 57 | 36 | 13.0 | 22.0 | 0.00 | 0.00 | 0.00 | 36 | 1008.1 |
| 20260504031542 | 57 | 34 | 15.0 | 25.0 | 0.00 | 0.00 | 0.00 | 35 | 1008.0 |
| 20260504030038 | 58 | 40 | 17.0 | 27.0 | 0.00 | 0.00 | 0.00 | 34 | 1007.6 |
| 20260504024545 | 58 | 19 | 17.0 | 33.0 | 0.00 | 0.00 | 0.00 | 34 | 1007.2 |
| 20260504023037 | 59 | 38 | 14.0 | 30.0 | 0.00 | 0.00 | 0.00 | 33 | 1007.0 |
| 20260504021539 | 61 | 38 | 19.0 | 30.0 | 0.00 | 0.00 | 0.00 | 32 | 1006.7 |
| 20260504020038 | 63 | 13 | 16.0 | 24.0 | 0.00 | 0.00 | 0.00 | 32 | 1006.2 |
| 20260504014538 | 64 | 23 | 11.0 | 16.0 | 0.00 | 0.00 | 0.00 | 33 | 1005.9 |
| 20260504013047 | 65 | 17 | 13.0 | 20.0 | 0.00 | 0.00 | 0.00 | 31 | 1005.8 |
| 20260504011535 | 66 | 27 | 14.0 | 22.0 | 0.00 | 0.00 | 0.00 | 30 | 1005.7 |